This is the latest recevied weather packets stored in our database for station/object M0ADS. If no packets are shown the sender has not sent any weather packets the latest 10 day(s).
| Time | Temp. | Humidity | Pressure | Rain* | Wind** | Luminosity | Snow |
|---|---|---|---|---|---|---|---|
| 1777477666 | 16.11° C | 43% | 1026.7 hPa | 0 mm | - | - | - |
| 1777476766 | 16.11° C | 42% | 1026.9 hPa | 0 mm | - | - | - |
| 1777475866 | 15.56° C | 41% | 1027.2 hPa | 0 mm | - | - | - |
| 1777474965 | 16.11° C | 43% | 1027.3 hPa | 0 mm | - | - | - |
| 1777474069 | 16.11° C | 41% | 1027.4 hPa | 0 mm | - | - | - |
| 1777473161 | 16.11° C | 42% | 1027.6 hPa | 0 mm | - | - | - |
| 1777472259 | 16.67° C | 40% | 1027.7 hPa | 0 mm | - | - | - |
| 1777471360 | 16.11° C | 42% | 1027.7 hPa | 0 mm | - | - | - |
| 1777470457 | 16.11° C | 42% | 1027.8 hPa | 0 mm | - | - | - |
| 1777469557 | 16.67° C | 43% | 1027.7 hPa | 0 mm | - | - | - |
| 1777468655 | 16.11° C | 41% | 1027.9 hPa | 0 mm | - | - | - |
| 1777467755 | 16.11° C | 43% | 1027.9 hPa | 0 mm | - | - | - |
| 1777466855 | 16.11° C | 42% | 1027.9 hPa | 0 mm | - | - | - |
| 1777465955 | 16.11° C | 43% | 1028 hPa | 0 mm | - | - | - |
| 1777465056 | 16.11° C | 44% | 1028 hPa | 0 mm | - | - | - |
| 1777464156 | 16.11° C | 45% | 1028.1 hPa | 0 mm | - | - | - |
| 1777463255 | 16.11° C | 45% | 1028 hPa | 0 mm | - | - | - |
| 1777462355 | 16.11° C | 48% | 1028.1 hPa | 0 mm | - | - | - |
| 1777461455 | 16.11° C | 45% | 1028.2 hPa | 0 mm | - | - | - |
| 1777460555 | 16.11° C | 47% | 1028.2 hPa | 0 mm | - | - | - |
| 1777459655 | 15.56° C | 49% | 1028.2 hPa | 0 mm | - | - | - |
| 1777458755 | 15.56° C | 50% | 1028.2 hPa | 0 mm | - | - | - |
| 1777457854 | 15° C | 50% | 1028.5 hPa | 0 mm | - | - | - |
| 1777456955 | 15° C | 54% | 1028.5 hPa | 0 mm | - | - | - |
| 1777456055 | 14.44° C | 55% | 1028.4 hPa | 0 mm | - | - | - |
* Rain latest hour (hover to see other rain measurements)
** Current wind speed in m/s (hover to see current wind gust speed)